This is the latest recevied weather packets stored in our database for station/object KB3GVC-13. If no packets are shown the sender has not sent any weather packets the latest 10 day(s).
| Time | Temp. | Humidity | Pressure | Rain* | Wind** | Luminosity | Snow |
|---|---|---|---|---|---|---|---|
| 1777811515 | 8.89° C | 58% | 1015.9 hPa | 0 mm | - | - | - |
| 1777811210 | 9.44° C | 57% | 1015.8 hPa | 0 mm | - | - | - |
| 1777810908 | 8.89° C | 58% | 1015.7 hPa | 0 mm | - | - | - |
| 1777810604 | 8.89° C | 59% | 1015.7 hPa | 0 mm | - | - | - |
| 1777810302 | 8.33° C | 61% | 1015.7 hPa | 0 mm | - | - | - |
| 1777809996 | 8.33° C | 65% | 1015.5 hPa | 0 mm | - | - | - |
| 1777809695 | 8.33° C | 65% | 1015.8 hPa | 0 mm | - | - | - |
| 1777809392 | 8.33° C | 65% | 1015.5 hPa | 0 mm | - | - | - |
| 1777809090 | 8.33° C | 66% | 1015.6 hPa | 0 mm | - | - | - |
| 1777808787 | 8.33° C | 64% | 1015.7 hPa | 0 mm | - | - | - |
| 1777808484 | 8.33° C | 64% | 1015.6 hPa | 0 mm | - | - | - |
| 1777808182 | 8.33° C | 64% | 1015.6 hPa | 0 mm | - | - | - |
| 1777807880 | 7.78° C | 64% | 1015.6 hPa | 0 mm | - | - | - |
| 1777807578 | 7.78° C | 63% | 1015.4 hPa | 0 mm | - | - | - |
| 1777807274 | 7.78° C | 63% | 1015.5 hPa | 0 mm | - | - | - |
| 1777806970 | 7.78° C | 62% | 1015.5 hPa | 0 mm | - | - | - |
| 1777806667 | 7.78° C | 63% | 1015.2 hPa | 0 mm | - | - | - |
| 1777806363 | 7.78° C | 63% | 1015.3 hPa | 0 mm | - | - | - |
| 1777806060 | 7.78° C | 63% | 1015.1 hPa | 0 mm | - | - | - |
| 1777805756 | 7.78° C | 65% | 1015.1 hPa | 0 mm | - | - | - |
| 1777805454 | 7.22° C | 66% | 1015 hPa | 0 mm | - | - | - |
| 1777805152 | 7.22° C | 67% | 1014.9 hPa | 0 mm | - | - | - |
| 1777804849 | 7.22° C | 69% | 1015 hPa | 0 mm | - | - | - |
| 1777804547 | 6.67° C | 70% | 1014.9 hPa | 0 mm | - | - | - |
| 1777804244 | 6.67° C | 71% | 1014.8 hPa | 0 mm | - | - | - |
* Rain latest hour (hover to see other rain measurements)
** Current wind speed in m/s (hover to see current wind gust speed)